User: anonymous   Login
Location: D�derode
(51.8092°N, 10.1065°E)
Time: 11:22:17
(UTC+00:00)
Language:

CSL-04 Debris - Orbit

View from above orbital plane
View from above orbital plane
View from above satellite
View from above satellite

Ground track
Ground track

The orbit data is extracted from the following two-line orbital elements,

1 25733U 99025D   21064.03350880  .00000099  00000-0  72493-4 0  9992
2 25733  98.9225  99.2588 0013760 303.0308  56.9543 14.16437301126654
Epoch (UTC): 05 March 2021 00:48:15
Eccentricity: 0.0013760
inclination: 98.9225°
perigee height: 827 km
apogee height: 847 km
right ascension of ascending node: 99.2588°
argument of perigee: 303.0308°
revolutions per day: 14.16437301
mean anomaly at epoch: 56.9543°
orbit number at epoch: 12665

The dashed part of the orbit path shows where the satellite is in the earth's shadow,  

DLR